Time,TemperatureF,DewpointF,PressureIn,WindDirection,WindDirectionDegrees,WindSpeedMPH,WindSpeedGustMPH,Humidity,HourlyPrecipIn,Conditions,Clouds,dailyrainin,SolarRadiationWatts/m^2,SoftwareType,DateUTC
2013-01-20 00:00:00,51.6,9.5,30.16,WNW,290,3.0,5.0,18,0.00,,CLR,0.00,0.00,VWS V14.01,2013-01-20 08:00:00,
2013-01-20 00:06:00,51.4,10.5,30.16,WNW,290,1.0,2.0,19,0.00,,CLR,0.00,0.00,VWS V14.01,2013-01-20 08:06:00,
2013-01-20 00:11:00,51.3,11.6,30.16,WNW,290,3.0,4.0,20,0.00,,CLR,0.00,0.00,VWS V14.01,2013-01-20 08:11:00,
2013-01-20 00:16:00,51.0,9.0,30.16,WNW,294,2.0,3.0,18,0.00,,CLR,0.00,0.00,VWS V14.01,2013-01-20 08:16:00,
2013-01-20 00:21:00,50.7,10.0,30.16,WNW,291,2.0,2.0,19,0.00,,CLR,0.00,0.00,VWS V14.01,2013-01-20 08:21:00,
2013-01-20 00:26:00,50.4,9.7,30.16,WNW,290,0.0,2.0,19,0.00,,CLR,0.00,0.00,VWS V14.01,2013-01-20 08:26:00,
2013-01-20 00:31:00,50.2,8.3,30.16,WNW,290,1.0,2.0,18,0.00,,CLR,0.00,0.00,VWS V14.01,2013-01-20 08:31:00,
2013-01-20 00:36:00,49.9,9.3,30.16,WNW,296,2.0,3.0,19,0.00,,CLR,0.00,0.00,VWS V14.01,2013-01-20 08:36:00,
2013-01-20 00:41:00,49.8,9.2,30.16,WNW,297,2.0,3.0,19,0.00,,CLR,0.00,0.00,VWS V14.01,2013-01-20 08:41:00,
2013-01-20 00:46:00,49.6,9.1,30.16,WNW,297,1.0,3.0,19,0.00,,CLR,0.00,0.00,VWS V14.01,2013-01-20 08:46:00,
2013-01-20 00:51:00,49.6,9.1,30.16,WNW,297,2.0,2.0,19,0.00,,CLR,0.00,0.00,VWS V14.01,2013-01-20 08:51:00,
2013-01-20 00:56:00,49.5,9.0,30.16,WNW,297,1.0,2.0,19,0.00,,CLR,0.00,0.00,VWS V14.01,2013-01-20 08:56:00,
2013-01-20 01:01:00,49.4,8.9,30.16,WNW,296,2.0,2.0,19,0.00,,CLR,0.00,0.00,VWS V14.01,2013-01-20 09:01:00,
2013-01-20 01:06:00,49.5,9.0,30.16,WNW,294,2.0,2.0,19,0.00,,CLR,0.00,0.00,VWS V14.01,2013-01-20 09:06:00,
2013-01-20 01:11:00,49.5,9.0,30.16,WNW,292,1.0,2.0,19,0.00,,CLR,0.00,0.00,VWS V14.01,2013-01-20 09:11:00,
2013-01-20 01:16:00,49.6,7.8,30.16,WNW,295,1.0,2.0,18,0.00,,CLR,0.00,0.00,VWS V14.01,2013-01-20 09:16:00,
2013-01-20 01:22:00,49.8,8.0,30.16,WNW,295,0.0,2.0,18,0.00,,CLR,0.00,0.00,VWS V14.01,2013-01-20 09:22:00,
2013-01-20 01:27:00,49.6,7.8,30.16,WNW,295,0.0,0.0,18,0.00,,CLR,0.00,0.00,VWS V14.01,2013-01-20 09:27:00,
2013-01-20 01:32:00,49.6,7.8,30.16,WNW,295,1.0,2.0,18,0.00,,CLR,0.00,0.00,VWS V14.01,2013-01-20 09:32:00,
2013-01-20 01:37:00,49.5,9.0,30.16,WNW,295,0.0,0.0,19,0.00,,CLR,0.00,0.00,VWS V14.01,2013-01-20 09:37:00,
2013-01-20 01:42:00,49.4,8.9,30.16,WNW,294,0.0,2.0,19,0.00,,CLR,0.00,0.00,VWS V14.01,2013-01-20 09:42:00,
2013-01-20 01:47:00,49.1,8.6,30.16,WNW,294,0.0,1.0,19,0.00,,CLR,0.00,0.00,VWS V14.01,2013-01-20 09:47:00,
2013-01-20 01:52:00,48.8,9.5,30.16,WNW,294,0.0,2.0,20,0.00,,CLR,0.00,0.00,VWS V14.01,2013-01-20 09:52:00,
2013-01-20 01:57:00,48.6,9.4,30.16,WNW,292,0.0,3.0,20,0.00,,CLR,0.00,0.00,VWS V14.01,2013-01-20 09:57:00,
2013-01-20 02:02:00,48.3,9.1,30.16,WNW,290,2.0,2.0,20,0.00,,CLR,0.00,0.00,VWS V14.01,2013-01-20 10:02:00,
2013-01-20 02:07:00,48.2,9.0,30.16,WNW,296,2.0,3.0,20,0.00,,CLR,0.00,0.00,VWS V14.01,2013-01-20 10:07:00,
2013-01-20 02:12:00,48.2,9.0,30.16,WNW,292,1.0,3.0,20,0.00,,CLR,0.00,0.00,VWS V14.01,2013-01-20 10:12:00,
2013-01-20 02:17:00,48.3,8.0,30.16,WNW,292,0.0,0.0,19,0.00,,CLR,0.00,0.00,VWS V14.01,2013-01-20 10:17:00,
2013-01-20 02:22:00,48.3,8.0,30.16,WNW,292,0.0,2.0,19,0.00,,CLR,0.00,0.00,VWS V14.01,2013-01-20 10:22:00,
2013-01-20 02:27:00,48.3,8.0,30.16,WNW,292,0.0,0.0,19,0.00,,CLR,0.00,0.00,VWS V14.01,2013-01-20 10:27:00,
2013-01-20 02:32:00,48.2,7.9,30.15,WNW,292,1.0,2.0,19,0.00,,CLR,0.00,0.00,VWS V14.01,2013-01-20 10:32:00,
2013-01-20 02:37:00,48.2,7.9,30.15,WNW,292,0.0,2.0,19,0.00,,CLR,0.00,0.00,VWS V14.01,2013-01-20 10:37:00,
2013-01-20 02:43:00,48.0,7.7,30.15,WNW,291,1.0,2.0,19,0.00,,CLR,0.00,0.00,VWS V14.01,2013-01-20 10:43:00,
2013-01-20 02:48:00,47.9,8.8,30.15,WNW,291,0.0,2.0,20,0.00,,CLR,0.00,0.00,VWS V14.01,2013-01-20 10:48:00,
2013-01-20 02:53:00,47.7,8.6,30.15,WNW,285,0.0,3.0,20,0.00,,CLR,0.00,0.00,VWS V14.01,2013-01-20 10:53:00,
2013-01-20 02:58:00,47.6,8.5,30.15,WNW,285,0.0,0.0,20,0.00,,CLR,0.00,0.00,VWS V14.01,2013-01-20 10:58:00,
2013-01-20 03:03:00,47.4,9.4,30.15,WNW,286,2.0,2.0,21,0.00,,CLR,0.00,0.00,VWS V14.01,2013-01-20 11:03:00,
2013-01-20 03:08:00,47.3,8.3,30.15,WNW,296,2.0,3.0,20,0.00,,CLR,0.00,0.00,VWS V14.01,2013-01-20 11:08:00,
2013-01-20 03:13:00,47.1,8.1,30.15,WNW,296,0.0,2.0,20,0.00,,CLR,0.00,0.00,VWS V14.01,2013-01-20 11:13:00,
2013-01-20 03:18:00,47.0,8.0,30.14,WNW,296,0.0,0.0,20,0.00,,CLR,0.00,0.00,VWS V14.01,2013-01-20 11:18:00,
2013-01-20 03:23:00,46.7,8.9,30.14,WNW,297,1.0,2.0,21,0.00,,CLR,0.00,0.00,VWS V14.01,2013-01-20 11:23:00,
2013-01-20 03:28:00,46.4,8.6,30.14,WNW,298,3.0,3.0,21,0.00,,CLR,0.00,0.00,VWS V14.01,2013-01-20 11:28:00,
2013-01-20 03:34:00,46.1,8.4,30.14,NW,315,2.0,4.0,21,0.00,,CLR,0.00,0.00,VWS V14.01,2013-01-20 11:34:00,
2013-01-20 03:39:00,45.8,8.1,30.14,NW,313,0.0,2.0,21,0.00,,CLR,0.00,0.00,VWS V14.01,2013-01-20 11:39:00,
2013-01-20 03:44:00,45.7,8.0,30.14,NW,313,0.0,2.0,21,0.00,,CLR,0.00,0.00,VWS V14.01,2013-01-20 11:44:00,
2013-01-20 03:49:00,45.7,8.0,30.13,NW,313,2.0,2.0,21,0.00,,CLR,0.00,0.00,VWS V14.01,2013-01-20 11:49:00,
2013-01-20 03:54:00,45.7,8.0,30.13,NW,312,1.0,2.0,21,0.00,,CLR,0.00,0.00,VWS V14.01,2013-01-20 11:54:00,
2013-01-20 03:59:00,45.7,8.0,30.13,NW,312,2.0,2.0,21,0.00,,CLR,0.00,0.00,VWS V14.01,2013-01-20 11:59:00,
2013-01-20 04:04:00,46.0,8.3,30.13,NW,311,1.0,2.0,21,0.00,,CLR,0.00,0.00,VWS V14.01,2013-01-20 12:04:00,
2013-01-20 04:09:00,46.0,8.3,30.13,NW,318,2.0,2.0,21,0.00,,CLR,0.00,0.00,VWS V14.01,2013-01-20 12:09:00,
2013-01-20 04:14:00,46.0,8.3,30.13,NNW,329,2.0,3.0,21,0.00,,CLR,0.00,0.00,VWS V14.01,2013-01-20 12:14:00,
2013-01-20 04:19:00,45.8,8.1,30.13,NNW,333,2.0,3.0,21,0.00,,CLR,0.00,0.00,VWS V14.01,2013-01-20 12:19:00,
2013-01-20 04:24:00,45.8,8.1,30.13,NW,311,2.0,3.0,21,0.00,,CLR,0.00,0.00,VWS V14.01,2013-01-20 12:24:00,
2013-01-20 04:30:00,46.1,8.4,30.13,NW,311,0.0,2.0,21,0.00,,CLR,0.00,0.00,VWS V14.01,2013-01-20 12:30:00,
2013-01-20 04:35:00,46.1,7.3,30.13,NW,311,0.0,2.0,20,0.00,,CLR,0.00,0.00,VWS V14.01,2013-01-20 12:35:00,
2013-01-20 04:40:00,46.2,7.4,30.13,NW,310,2.0,3.0,20,0.00,,CLR,0.00,0.00,VWS V14.01,2013-01-20 12:40:00,
2013-01-20 04:45:00,46.2,7.4,30.13,NW,308,3.0,3.0,20,0.00,,CLR,0.00,0.00,VWS V14.01,2013-01-20 12:45:00,
2013-01-20 04:50:00,46.2,7.4,30.13,NW,306,0.0,2.0,20,0.00,,CLR,0.00,0.00,VWS V14.01,2013-01-20 12:50:00,
2013-01-20 04:55:00,46.1,7.3,30.13,NW,317,2.0,3.0,20,0.00,,CLR,0.00,0.00,VWS V14.01,2013-01-20 12:55:00,
2013-01-20 05:00:00,46.0,7.2,30.13,NW,305,2.0,3.0,20,0.00,,CLR,0.00,0.00,VWS V14.01,2013-01-20 13:00:00,
2013-01-20 05:05:00,46.0,7.2,30.13,WNW,302,1.0,3.0,20,0.00,,CLR,0.00,0.00,VWS V14.01,2013-01-20 13:05:00,
2013-01-20 05:10:00,46.0,7.2,30.13,WNW,302,0.0,2.0,20,0.00,,CLR,0.00,0.00,VWS V14.01,2013-01-20 13:10:00,
2013-01-20 05:15:00,46.0,7.2,30.14,WNW,302,0.0,1.0,20,0.00,,CLR,0.00,0.00,VWS V14.01,2013-01-20 13:15:00,
2013-01-20 05:20:00,45.8,7.0,30.14,WNW,302,0.0,0.0,20,0.00,,CLR,0.00,0.00,VWS V14.01,2013-01-20 13:20:00,
2013-01-20 05:25:00,45.8,9.1,30.14,WNW,302,0.0,0.0,22,0.00,,CLR,0.00,0.00,VWS V14.01,2013-01-20 13:25:00,
2013-01-20 05:30:00,45.7,8.0,30.14,WNW,302,0.0,2.0,21,0.00,,CLR,0.00,0.00,VWS V14.01,2013-01-20 13:30:00,
2013-01-20 05:35:00,45.5,8.9,30.14,WNW,302,1.0,2.0,22,0.00,,CLR,0.00,0.00,VWS V14.01,2013-01-20 13:35:00,
2013-01-20 05:40:00,45.4,7.8,30.14,NW,311,2.0,3.0,21,0.00,,CLR,0.00,0.00,VWS V14.01,2013-01-20 13:40:00,
2013-01-20 05:46:00,45.2,7.6,30.14,NW,304,3.0,3.0,21,0.00,,CLR,0.00,0.00,VWS V14.01,2013-01-20 13:46:00,
2013-01-20 05:51:00,44.9,7.3,30.14,WNW,302,1.0,2.0,21,0.00,,CLR,0.00,0.00,VWS V14.01,2013-01-20 13:51:00,
2013-01-20 05:56:00,44.8,8.3,30.14,WNW,302,0.0,0.0,22,0.00,,CLR,0.00,0.00,VWS V14.01,2013-01-20 13:56:00,
2013-01-20 06:01:00,44.6,8.1,30.15,WNW,301,2.0,2.0,22,0.00,,CLR,0.00,0.00,VWS V14.01,2013-01-20 14:01:00,
2013-01-20 06:06:00,44.5,8.0,30.15,WNW,301,2.0,2.0,22,0.00,,CLR,0.00,0.00,VWS V14.01,2013-01-20 14:06:00,
2013-01-20 06:11:00,44.3,7.9,30.15,WNW,300,2.0,2.0,22,0.00,,CLR,0.00,0.00,VWS V14.01,2013-01-20 14:11:00,
2013-01-20 06:16:00,44.2,7.8,30.15,WNW,300,0.0,0.0,22,0.00,,CLR,0.00,0.00,VWS V14.01,2013-01-20 14:16:00,
2013-01-20 06:21:00,43.9,7.5,30.15,WNW,302,2.0,3.0,22,0.00,,CLR,0.00,0.00,VWS V14.01,2013-01-20 14:21:00,
2013-01-20 06:26:00,43.8,9.4,30.15,NW,317,2.0,2.0,24,0.00,,CLR,0.00,0.00,VWS V14.01,2013-01-20 14:26:00,
2013-01-20 06:31:00,43.6,8.3,30.15,NW,317,2.0,3.0,23,0.00,,CLR,0.00,0.00,VWS V14.01,2013-01-20 14:31:00,
2013-01-20 06:36:00,43.5,8.2,30.15,NW,309,2.0,3.0,23,0.00,,CLR,0.00,0.00,VWS V14.01,2013-01-20 14:36:00,
2013-01-20 06:41:00,43.3,7.0,30.15,NW,304,1.0,2.0,22,0.00,,CLR,0.00,0.00,VWS V14.01,2013-01-20 14:41:00,
2013-01-20 06:46:00,43.3,7.0,30.15,WNW,302,0.0,0.0,22,0.00,,CLR,0.00,0.00,VWS V14.01,2013-01-20 14:46:00,
2013-01-20 06:51:00,43.3,7.0,30.15,WNW,302,0.0,2.0,22,0.00,,CLR,0.00,7.00,VWS V14.01,2013-01-20 14:51:00,
2013-01-20 06:56:00,43.5,7.2,30.15,WNW,301,0.0,2.0,22,0.00,,CLR,0.00,11.00,VWS V14.01,2013-01-20 14:56:00,
2013-01-20 07:01:00,43.6,7.3,30.15,WNW,301,2.0,2.0,22,0.00,,CLR,0.00,12.00,VWS V14.01,2013-01-20 15:01:00,
2013-01-20 07:06:00,43.9,8.5,30.15,NW,304,2.0,2.0,23,0.00,,CLR,0.00,14.00,VWS V14.01,2013-01-20 15:06:00,
2013-01-20 07:11:00,43.9,7.5,30.15,NW,306,0.0,0.0,22,0.00,,CLR,0.00,18.00,VWS V14.01,2013-01-20 15:11:00,
2013-01-20 07:16:00,44.1,6.7,30.15,NW,306,0.0,0.0,21,0.00,,CLR,0.00,21.00,VWS V14.01,2013-01-20 15:16:00,
2013-01-20 07:22:00,44.2,7.8,30.15,NW,306,0.0,0.0,22,0.00,,CLR,0.00,28.00,VWS V14.01,2013-01-20 15:22:00,
2013-01-20 07:27:00,44.3,8.9,30.15,NW,305,0.0,2.0,23,0.00,,CLR,0.00,33.00,VWS V14.01,2013-01-20 15:27:00,
2013-01-20 07:32:00,44.6,8.1,30.15,NW,306,0.0,0.0,22,0.00,,CLR,0.00,54.00,VWS V14.01,2013-01-20 15:32:00,
2013-01-20 07:37:00,44.9,10.3,30.15,NW,306,0.0,0.0,24,0.00,,CLR,0.00,84.00,VWS V14.01,2013-01-20 15:37:00,
2013-01-20 07:42:00,45.2,9.6,30.15,NW,306,0.0,0.0,23,0.00,,CLR,0.00,114.00,VWS V14.01,2013-01-20 15:42:00,
2013-01-20 07:47:00,45.8,11.1,30.15,NW,306,0.0,0.0,24,0.00,,CLR,0.00,134.00,VWS V14.01,2013-01-20 15:47:00,
2013-01-20 07:52:00,46.2,9.5,30.15,NW,306,0.0,0.0,22,0.00,,CLR,0.00,151.00,VWS V14.01,2013-01-20 15:52:00,
2013-01-20 07:57:00,47.1,11.2,30.15,NW,306,0.0,0.0,23,0.00,,CLR,0.00,171.00,VWS V14.01,2013-01-20 15:57:00,
2013-01-20 08:02:00,48.0,11.0,30.15,NW,306,0.0,0.0,22,0.00,,CLR,0.00,192.00,VWS V14.01,2013-01-20 16:02:00,
2013-01-20 08:07:00,48.8,13.6,30.15,NW,305,0.0,0.0,24,0.00,,CLR,0.00,211.00,VWS V14.01,2013-01-20 16:07:00,
2013-01-20 08:12:00,49.4,16.0,30.15,NW,305,0.0,0.0,26,0.00,,CLR,0.00,227.00,VWS V14.01,2013-01-20 16:12:00,
2013-01-20 08:17:00,50.1,17.4,30.16,NW,305,0.0,0.0,27,0.00,,CLR,0.00,246.00,VWS V14.01,2013-01-20 16:17:00,
2013-01-20 08:22:00,50.7,14.3,30.16,NW,305,0.0,0.0,23,0.00,,CLR,0.00,264.00,VWS V14.01,2013-01-20 16:22:00,
2013-01-20 08:27:00,51.6,17.0,30.16,NW,305,0.0,0.0,25,0.00,,CLR,0.00,279.00,VWS V14.01,2013-01-20 16:27:00,
2013-01-20 08:32:00,52.5,15.8,30.16,NW,305,0.0,0.0,23,0.00,,CLR,0.00,292.00,VWS V14.01,2013-01-20 16:32:00,
2013-01-20 08:37:00,53.3,14.4,30.16,NW,305,0.0,0.0,21,0.00,,CLR,0.00,306.00,VWS V14.01,2013-01-20 16:37:00,
2013-01-20 08:42:00,54.5,15.4,30.16,NW,305,0.0,0.0,21,0.00,,CLR,0.00,325.00,VWS V14.01,2013-01-20 16:42:00,
2013-01-20 08:47:00,55.6,14.0,30.16,NW,305,0.0,0.0,19,0.00,,CLR,0.00,339.00,VWS V14.01,2013-01-20 16:47:00,
2013-01-20 08:52:00,56.3,14.6,30.16,NW,305,0.0,1.0,19,0.00,,CLR,0.00,352.00,VWS V14.01,2013-01-20 16:52:00,
2013-01-20 08:57:00,57.2,14.1,30.16,NNW,332,0.0,1.0,18,0.00,,CLR,0.00,366.00,VWS V14.01,2013-01-20 16:57:00,
2013-01-20 09:02:00,58.0,13.4,30.17,NNW,331,0.0,0.0,17,0.00,,CLR,0.00,380.00,VWS V14.01,2013-01-20 17:02:00,
2013-01-20 09:07:00,58.7,14.0,30.17,NNW,337,0.0,1.0,17,0.00,,CLR,0.00,396.00,VWS V14.01,2013-01-20 17:07:00,
2013-01-20 09:12:00,59.5,14.7,30.17,NNW,337,0.0,0.0,17,0.00,,CLR,0.00,408.00,VWS V14.01,2013-01-20 17:12:00,
2013-01-20 09:17:00,60.2,15.2,30.17,NNW,337,2.0,2.0,17,0.00,,CLR,0.00,422.00,VWS V14.01,2013-01-20 17:17:00,
2013-01-20 09:22:00,61.2,14.7,30.17,NNW,337,2.0,2.0,16,0.00,,CLR,0.00,434.00,VWS V14.01,2013-01-20 17:22:00,
2013-01-20 09:27:00,62.0,16.7,30.17,NNW,337,0.0,0.0,17,0.00,,CLR,0.00,446.00,VWS V14.01,2013-01-20 17:27:00,
2013-01-20 09:32:00,62.9,14.6,30.17,NNW,337,0.0,0.0,15,0.00,,CLR,0.00,459.00,VWS V14.01,2013-01-20 17:32:00,
2013-01-20 09:37:00,63.7,15.2,30.17,NNW,337,0.0,0.0,15,0.00,,CLR,0.00,473.00,VWS V14.01,2013-01-20 17:37:00,
2013-01-20 09:42:00,64.5,17.3,30.17,NNW,337,0.0,2.0,16,0.00,,CLR,0.00,483.00,VWS V14.01,2013-01-20 17:42:00,
2013-01-20 09:47:00,65.3,16.5,30.16,NNW,337,0.0,1.0,15,0.00,,CLR,0.00,494.00,VWS V14.01,2013-01-20 17:47:00,
2013-01-20 09:52:00,66.1,17.1,30.16,NNW,337,0.0,0.0,15,0.00,,CLR,0.00,506.00,VWS V14.01,2013-01-20 17:52:00,
2013-01-20 09:57:00,66.9,16.2,30.16,NNW,337,0.0,0.0,14,0.00,,CLR,0.00,517.00,VWS V14.01,2013-01-20 17:57:00,
2013-01-20 10:03:00,67.6,15.0,30.16,NNW,337,0.0,0.0,13,0.00,,CLR,0.00,527.00,VWS V14.01,2013-01-20 18:03:00,
2013-01-20 10:08:00,68.1,13.6,30.16,NNW,337,0.0,0.0,12,0.00,,CLR,0.00,538.00,VWS V14.01,2013-01-20 18:08:00,
2013-01-20 10:13:00,68.9,14.2,30.16,NNW,337,0.0,1.0,12,0.00,,CLR,0.00,547.00,VWS V14.01,2013-01-20 18:13:00,
2013-01-20 10:18:00,69.8,13.0,30.16,NNW,337,0.0,1.0,11,0.00,,CLR,0.00,545.00,VWS V14.01,2013-01-20 18:18:00,
2013-01-20 10:23:00,70.3,13.3,30.16,NNW,337,0.0,1.0,11,0.00,,CLR,0.00,566.00,VWS V14.01,2013-01-20 18:23:00,
2013-01-20 10:28:00,70.6,13.6,30.16,NNW,337,0.0,2.0,11,0.00,,CLR,0.00,573.00,VWS V14.01,2013-01-20 18:28:00,
2013-01-20 10:33:00,70.8,13.7,30.15,NNW,337,1.0,2.0,11,0.00,,CLR,0.00,580.00,VWS V14.01,2013-01-20 18:33:00,
2013-01-20 10:38:00,71.3,14.1,30.15,NNW,337,0.0,1.0,11,0.00,,CLR,0.00,587.00,VWS V14.01,2013-01-20 18:38:00,
2013-01-20 10:43:00,71.8,16.5,30.15,NNW,337,0.0,2.0,12,0.00,,CLR,0.00,596.00,VWS V14.01,2013-01-20 18:43:00,
2013-01-20 10:48:00,72.0,16.6,30.15,NNW,337,0.0,1.0,12,0.00,,CLR,0.00,601.00,VWS V14.01,2013-01-20 18:48:00,
2013-01-20 10:53:00,71.8,14.5,30.15,NNW,337,0.0,1.0,11,0.00,,CLR,0.00,608.00,VWS V14.01,2013-01-20 18:53:00,
2013-01-20 10:58:00,72.1,14.7,30.15,NNW,337,0.0,0.0,11,0.00,,CLR,0.00,613.00,VWS V14.01,2013-01-20 18:58:00,
2013-01-20 11:03:00,72.5,15.0,30.14,NNW,337,0.0,1.0,11,0.00,,CLR,0.00,619.00,VWS V14.01,2013-01-20 19:03:00,
2013-01-20 11:08:00,72.5,17.0,30.14,NNW,337,0.0,0.0,12,0.00,,CLR,0.00,624.00,VWS V14.01,2013-01-20 19:08:00,
2013-01-20 11:13:00,73.2,17.6,30.14,NNW,337,0.0,0.0,12,0.00,,CLR,0.00,626.00,VWS V14.01,2013-01-20 19:13:00,
2013-01-20 11:18:00,73.7,13.8,30.13,NNW,337,0.0,0.0,10,0.00,,CLR,0.00,631.00,VWS V14.01,2013-01-20 19:18:00,
2013-01-20 11:23:00,73.5,13.6,30.13,NNW,337,0.0,0.0,10,0.00,,CLR,0.00,636.00,VWS V14.01,2013-01-20 19:23:00,
2013-01-20 11:28:00,74.0,14.0,30.13,NNW,337,0.0,0.0,10,0.00,,CLR,0.00,636.00,VWS V14.01,2013-01-20 19:28:00,
2013-01-20 11:33:00,74.4,16.5,30.12,NNW,337,0.0,3.0,11,0.00,,CLR,0.00,640.00,VWS V14.01,2013-01-20 19:33:00,
2013-01-20 11:38:00,74.9,18.9,30.12,WNW,298,0.0,2.0,12,0.00,,CLR,0.00,645.00,VWS V14.01,2013-01-20 19:38:00,
2013-01-20 11:43:00,74.7,14.6,30.12,WNW,298,0.0,0.0,10,0.00,,CLR,0.00,645.00,VWS V14.01,2013-01-20 19:43:00,
2013-01-20 11:50:00,74.0,14.0,30.11,North,0,0.0,0.0,10,0.00,,,0.00,646.00,VWS V14.01,2013-01-20 19:50:00,
2013-01-20 11:55:00,74.4,14.3,30.11,WNW,292,0.0,2.0,10,0.00,,,0.00,649.00,VWS V14.01,2013-01-20 19:55:00,
2013-01-20 12:00:00,74.7,14.6,30.10,WNW,292,0.0,1.0,10,0.00,,,0.00,648.00,VWS V14.01,2013-01-20 20:00:00,
2013-01-20 12:05:00,75.1,14.9,30.10,WNW,292,0.0,0.0,10,0.00,,,0.00,648.00,VWS V14.01,2013-01-20 20:05:00,
2013-01-20 12:10:00,75.1,12.5,30.10,WNW,292,0.0,2.0,9,0.00,,,0.00,647.00,VWS V14.01,2013-01-20 20:10:00,
2013-01-20 12:15:00,75.1,12.5,30.09,WNW,292,0.0,3.0,9,0.00,,,0.00,646.00,VWS V14.01,2013-01-20 20:15:00,
2013-01-20 12:20:00,75.6,12.8,30.09,WNW,292,0.0,2.0,9,0.00,,,0.00,644.00,VWS V14.01,2013-01-20 20:20:00,
2013-01-20 12:25:00,76.3,18.0,30.09,WNW,292,1.0,3.0,11,0.00,,,0.00,642.00,VWS V14.01,2013-01-20 20:25:00,
2013-01-20 12:30:00,76.5,15.9,30.08,WNW,292,0.0,3.0,10,0.00,,,0.00,640.00,VWS V14.01,2013-01-20 20:30:00,
2013-01-20 12:35:00,76.1,13.2,30.08,WNW,292,0.0,2.0,9,0.00,,,0.00,638.00,VWS V14.01,2013-01-20 20:35:00,
2013-01-20 12:40:00,75.8,13.0,30.08,WNW,292,0.0,0.0,9,0.00,,,0.00,635.00,VWS V14.01,2013-01-20 20:40:00,
2013-01-20 12:45:00,76.1,13.2,30.07,WNW,292,1.0,3.0,9,0.00,,,0.00,630.00,VWS V14.01,2013-01-20 20:45:00,
2013-01-20 12:50:00,76.3,13.4,30.07,WNW,292,0.0,3.0,9,0.00,,,0.00,628.00,VWS V14.01,2013-01-20 20:50:00,
2013-01-20 12:55:00,76.7,20.3,30.07,WNW,292,0.0,3.0,12,0.00,,,0.00,623.00,VWS V14.01,2013-01-20 20:55:00,
2013-01-20 13:00:00,77.2,14.1,30.07,WNW,298,1.0,1.0,9,0.00,,,0.00,615.00,VWS V14.01,2013-01-20 21:00:00,
2013-01-20 13:01:00,76.7,20.3,30.07,WNW,292,0.0,3.0,12,0.00,,,0.00,623.00,VWS V14.01,2013-01-20 21:01:00,
2013-01-20 13:05:00,77.0,13.9,30.07,WNW,298,0.0,1.0,9,0.00,,,0.00,612.00,VWS V14.01,2013-01-20 21:05:00,
2013-01-20 13:06:00,77.0,13.9,30.07,WNW,298,0.0,0.0,9,0.00,,,0.00,612.00,VWS V14.01,2013-01-20 21:06:00,
2013-01-20 13:10:00,77.4,16.6,30.07,WNW,298,2.0,2.0,10,0.00,,,0.00,606.00,VWS V14.01,2013-01-20 21:10:00,
2013-01-20 13:11:00,77.6,14.4,30.07,WNW,298,3.0,3.0,9,0.00,,,0.00,603.00,VWS V14.01,2013-01-20 21:11:00,
2013-01-20 13:15:00,77.2,11.4,30.06,WNW,298,0.0,3.0,8,0.00,,,0.00,598.00,VWS V14.01,2013-01-20 21:15:00,
2013-01-20 13:16:00,77.2,11.4,30.06,WNW,298,2.0,2.0,8,0.00,,,0.00,596.00,VWS V14.01,2013-01-20 21:16:00,
2013-01-20 13:20:00,77.2,14.1,30.06,WNW,298,2.0,2.0,9,0.00,,,0.00,589.00,VWS V14.01,2013-01-20 21:20:00,
2013-01-20 13:21:00,77.4,11.5,30.06,WNW,298,1.0,3.0,8,0.00,,,0.00,589.00,VWS V14.01,2013-01-20 21:21:00,
2013-01-20 13:25:00,77.6,11.7,30.06,WNW,298,2.0,3.0,8,0.00,,,0.00,584.00,VWS V14.01,2013-01-20 21:25:00,
2013-01-20 13:26:00,77.4,11.5,30.06,WNW,298,0.0,2.0,8,0.00,,,0.00,580.00,VWS V14.01,2013-01-20 21:26:00,
2013-01-20 13:30:00,77.6,14.4,30.05,WNW,298,2.0,3.0,9,0.00,,,0.00,575.00,VWS V14.01,2013-01-20 21:30:00,
2013-01-20 13:32:00,77.9,17.0,30.05,WNW,298,1.0,3.0,10,0.00,,CLR,0.00,573.00,VWS V14.01,2013-01-20 21:32:00,
2013-01-20 13:35:00,78.1,14.7,30.05,WNW,298,0.0,4.0,9,0.00,,,0.00,566.00,VWS V14.01,2013-01-20 21:35:00,
2013-01-20 13:37:00,78.1,14.7,30.05,WNW,298,4.0,4.0,9,0.00,,CLR,0.00,564.00,VWS V14.01,2013-01-20 21:37:00,
2013-01-20 13:40:00,78.5,17.5,30.05,WNW,298,2.0,4.0,10,0.00,,,0.00,559.00,VWS V14.01,2013-01-20 21:40:00,
2013-01-20 13:42:00,78.5,15.0,30.05,WNW,298,0.0,3.0,9,0.00,,CLR,0.00,557.00,VWS V14.01,2013-01-20 21:42:00,
2013-01-20 13:45:00,78.5,17.5,30.05,WNW,298,1.0,3.0,10,0.00,,,0.00,550.00,VWS V14.01,2013-01-20 21:45:00,
2013-01-20 13:47:00,78.3,14.9,30.05,WNW,298,0.0,1.0,9,0.00,,CLR,0.00,545.00,VWS V14.01,2013-01-20 21:47:00,
2013-01-20 13:50:00,78.5,17.5,30.05,WNW,298,1.0,4.0,10,0.00,,,0.00,540.00,VWS V14.01,2013-01-20 21:50:00,
2013-01-20 13:52:00,78.3,9.2,30.05,WNW,298,0.0,2.0,7,0.00,,CLR,0.00,538.00,VWS V14.01,2013-01-20 21:52:00,
2013-01-20 13:55:00,77.7,11.8,30.05,WNW,298,0.0,2.0,8,0.00,,,0.00,529.00,VWS V14.01,2013-01-20 21:55:00,
2013-01-20 13:57:00,78.1,14.7,30.05,WNW,298,1.0,3.0,9,0.00,,CLR,0.00,524.00,VWS V14.01,2013-01-20 21:57:00,
2013-01-20 14:00:00,78.1,12.1,30.04,WNW,298,2.0,4.0,8,0.00,,,0.00,519.00,VWS V14.01,2013-01-20 22:00:00,
2013-01-20 14:02:00,78.1,14.7,30.04,WNW,298,1.0,2.0,9,0.00,,CLR,0.00,513.00,VWS V14.01,2013-01-20 22:02:00,
2013-01-20 14:05:00,78.1,12.1,30.04,WNW,298,0.0,2.0,8,0.00,,,0.00,510.00,VWS V14.01,2013-01-20 22:05:00,
2013-01-20 14:08:00,78.5,15.0,30.04,WNW,298,0.0,3.0,9,0.00,,CLR,0.00,504.00,VWS V14.01,2013-01-20 22:08:00,
2013-01-20 14:10:00,79.0,17.8,30.04,WNW,298,1.0,3.0,10,0.00,,,0.00,496.00,VWS V14.01,2013-01-20 22:10:00,
2013-01-20 14:13:00,78.6,12.4,30.04,WNW,298,0.0,2.0,8,0.00,,CLR,0.00,490.00,VWS V14.01,2013-01-20 22:13:00,
2013-01-20 14:15:00,78.1,9.1,30.04,WNW,298,0.0,3.0,7,0.00,,,0.00,485.00,VWS V14.01,2013-01-20 22:15:00,
2013-01-20 14:18:00,77.2,11.4,30.04,WNW,298,0.0,0.0,8,0.00,,CLR,0.00,478.00,VWS V14.01,2013-01-20 22:18:00,
2013-01-20 14:20:00,77.9,14.6,30.04,WNW,298,0.0,0.0,9,0.00,,,0.00,473.00,VWS V14.01,2013-01-20 22:20:00,
2013-01-20 14:23:00,78.3,9.2,30.04,WNW,298,0.0,6.0,7,0.00,,CLR,0.00,466.00,VWS V14.01,2013-01-20 22:23:00,
2013-01-20 14:25:00,78.3,12.2,30.04,WNW,298,2.0,6.0,8,0.00,,,0.00,462.00,VWS V14.01,2013-01-20 22:25:00,
2013-01-20 14:28:00,78.1,12.1,30.04,WNW,298,1.0,3.0,8,0.00,,CLR,0.00,452.00,VWS V14.01,2013-01-20 22:28:00,
2013-01-20 14:30:00,78.1,12.1,30.04,WNW,298,0.0,3.0,8,0.00,,,0.00,448.00,VWS V14.01,2013-01-20 22:30:00,
2013-01-20 14:34:00,78.3,12.2,30.04,WNW,298,0.0,2.0,8,0.00,,CLR,0.00,438.00,VWS V14.01,2013-01-20 22:34:00,
2013-01-20 14:35:00,78.3,12.2,30.04,WNW,298,0.0,2.0,8,0.00,,,0.00,436.00,VWS V14.01,2013-01-20 22:35:00,
2013-01-20 14:39:00,78.3,12.2,30.04,WNW,298,0.0,5.0,8,0.00,,CLR,0.00,425.00,VWS V14.01,2013-01-20 22:39:00,
2013-01-20 14:40:00,78.5,15.0,30.04,WNW,298,0.0,5.0,9,0.00,,,0.00,424.00,VWS V14.01,2013-01-20 22:40:00,
2013-01-20 14:44:00,77.9,11.9,30.04,WNW,298,2.0,6.0,8,0.00,,CLR,0.00,411.00,VWS V14.01,2013-01-20 22:44:00,
2013-01-20 14:45:00,77.9,11.9,30.04,WNW,298,2.0,6.0,8,0.00,,,0.00,408.00,VWS V14.01,2013-01-20 22:45:00,
2013-01-20 14:50:00,78.1,14.7,30.04,WNW,298,0.0,4.0,9,0.00,,CLR,0.00,396.00,VWS V14.01,2013-01-20 22:50:00,
2013-01-20 14:55:00,78.3,12.2,30.04,WNW,298,0.0,4.0,8,0.00,,CLR,0.00,381.00,VWS V14.01,2013-01-20 22:55:00,
2013-01-20 15:00:00,78.1,12.1,30.03,WNW,298,0.0,3.0,8,0.00,,CLR,0.00,367.00,VWS V14.01,2013-01-20 23:00:00,
2013-01-20 15:05:00,78.1,12.1,30.03,WNW,298,4.0,5.0,8,0.00,,CLR,0.00,352.00,VWS V14.01,2013-01-20 23:05:00,
2013-01-20 15:10:00,78.3,14.9,30.03,WNW,298,3.0,5.0,9,0.00,,,0.00,339.00,VWS V14.01,2013-01-20 23:10:00,
2013-01-20 15:11:00,78.3,14.9,30.03,WNW,298,2.0,3.0,9,0.00,,CLR,0.00,338.00,VWS V14.01,2013-01-20 23:11:00,
2013-01-20 15:24:00,78.1,14.7,30.03,SSW,213,0.0,3.0,9,0.00,,,0.00,297.00,VWS V14.01,2013-01-20 23:24:00,
2013-01-20 15:25:00,78.1,14.7,30.03,SSW,213,0.0,3.0,9,0.00,,,0.00,294.00,VWS V14.01,2013-01-20 23:25:00,
2013-01-20 15:29:00,78.1,17.1,30.03,SSW,207,3.0,4.0,10,0.00,,,0.00,279.00,VWS V14.01,2013-01-20 23:29:00,
2013-01-20 15:30:00,78.1,17.1,30.03,SSW,209,3.0,4.0,10,0.00,,,0.00,276.00,VWS V14.01,2013-01-20 23:30:00,
2013-01-20 15:35:00,78.1,14.7,30.03,SW,215,0.0,5.0,9,0.00,,CLR,0.00,260.00,VWS V14.01,2013-01-20 23:35:00,
2013-01-20 15:40:00,78.3,14.9,30.03,SSW,205,2.0,4.0,9,0.00,,CLR,0.00,239.00,VWS V14.01,2013-01-20 23:40:00,
2013-01-20 15:45:00,77.9,11.9,30.03,SSW,208,1.0,4.0,8,0.00,,CLR,0.00,220.00,VWS V14.01,2013-01-20 23:45:00,
2013-01-20 15:50:00,77.7,11.8,30.03,SW,221,1.0,5.0,8,0.00,,CLR,0.00,199.00,VWS V14.01,2013-01-20 23:50:00,
2013-01-20 15:55:00,77.6,14.4,30.03,SW,221,2.0,5.0,9,0.00,,CLR,0.00,176.00,VWS V14.01,2013-01-20 23:55:00,
2013-01-20 16:00:00,77.6,14.4,30.03,SW,221,0.0,3.0,9,0.00,,CLR,0.00,160.00,VWS V14.01,2013-01-21 00:00:00,
2013-01-20 16:05:00,77.4,14.2,30.03,SW,221,0.0,6.0,9,0.00,,CLR,0.00,139.00,VWS V14.01,2013-01-21 00:05:00,
2013-01-20 16:10:00,77.4,11.5,30.03,SW,221,0.0,3.0,8,0.00,,CLR,0.00,120.00,VWS V14.01,2013-01-21 00:10:00,
2013-01-20 16:15:00,77.2,11.4,30.03,SW,221,0.0,2.0,8,0.00,,CLR,0.00,100.00,VWS V14.01,2013-01-21 00:15:00,
2013-01-20 16:20:00,77.2,14.1,30.03,SW,221,0.0,2.0,9,0.00,,CLR,0.00,84.00,VWS V14.01,2013-01-21 00:20:00,
2013-01-20 16:25:00,76.7,13.7,30.03,SW,221,0.0,4.0,9,0.00,,CLR,0.00,67.00,VWS V14.01,2013-01-21 00:25:00,
2013-01-20 16:30:00,76.7,13.7,30.03,SW,221,0.0,2.0,9,0.00,,CLR,0.00,53.00,VWS V14.01,2013-01-21 00:30:00,
2013-01-20 16:35:00,76.5,13.5,30.03,SSW,203,1.0,1.0,9,0.00,,CLR,0.00,28.00,VWS V14.01,2013-01-21 00:35:00,
2013-01-20 16:40:00,76.5,13.5,30.03,SSW,203,0.0,2.0,9,0.00,,CLR,0.00,14.00,VWS V14.01,2013-01-21 00:40:00,
2013-01-20 16:45:00,76.5,13.5,30.04,SSW,203,1.0,1.0,9,0.00,,CLR,0.00,12.00,VWS V14.01,2013-01-21 00:45:00,
2013-01-20 16:50:00,76.1,13.2,30.04,WSW,238,1.0,1.0,9,0.00,,CLR,0.00,11.00,VWS V14.01,2013-01-21 00:50:00,
2013-01-20 16:55:00,75.6,12.8,30.04,WSW,241,5.0,6.0,9,0.00,,,0.00,9.00,VWS V14.01,2013-01-21 00:55:00,
2013-01-20 16:56:00,75.4,10.0,30.04,WSW,241,6.0,6.0,8,0.00,,CLR,0.00,9.00,VWS V14.01,2013-01-21 00:56:00,
2013-01-20 17:00:00,74.9,9.7,30.04,WSW,241,0.0,6.0,8,0.00,,,0.00,7.00,VWS V14.01,2013-01-21 01:00:00,
2013-01-20 17:01:00,74.7,9.5,30.04,WSW,241,1.0,1.0,8,0.00,,CLR,0.00,7.00,VWS V14.01,2013-01-21 01:01:00,
2013-01-20 17:05:00,74.4,9.3,30.04,WSW,241,0.0,2.0,8,0.00,,,0.00,5.00,VWS V14.01,2013-01-21 01:05:00,
2013-01-20 17:06:00,74.4,9.3,30.04,WSW,241,0.0,1.0,8,0.00,,CLR,0.00,5.00,VWS V14.01,2013-01-21 01:06:00,
2013-01-20 17:10:00,73.9,8.9,30.04,WSW,241,0.0,3.0,8,0.00,,,0.00,0.00,VWS V14.01,2013-01-21 01:10:00,
2013-01-20 17:11:00,73.7,8.8,30.04,WSW,241,0.0,1.0,8,0.00,,CLR,0.00,0.00,VWS V14.01,2013-01-21 01:11:00,
2013-01-20 17:15:00,73.3,8.5,30.04,WSW,243,1.0,4.0,8,0.00,,,0.00,0.00,VWS V14.01,2013-01-21 01:15:00,
2013-01-20 17:17:00,73.2,8.4,30.04,WSW,244,4.0,4.0,8,0.00,,CLR,0.00,0.00,VWS V14.01,2013-01-21 01:17:00,
2013-01-20 17:20:00,72.8,10.7,30.04,WSW,244,0.0,4.0,9,0.00,,,0.00,0.00,VWS V14.01,2013-01-21 01:20:00,
2013-01-20 17:22:00,72.7,8.0,30.04,WSW,244,2.0,3.0,8,0.00,,CLR,0.00,0.00,VWS V14.01,2013-01-21 01:22:00,
2013-01-20 17:25:00,72.1,7.6,30.04,WSW,245,3.0,4.0,8,0.00,,,0.00,0.00,VWS V14.01,2013-01-21 01:25:00,
2013-01-20 17:27:00,72.0,10.1,30.04,WSW,245,3.0,4.0,9,0.00,,CLR,0.00,0.00,VWS V14.01,2013-01-21 01:27:00,
2013-01-20 17:30:00,71.6,9.8,30.05,WSW,246,3.0,5.0,9,0.00,,,0.00,0.00,VWS V14.01,2013-01-21 01:30:00,
2013-01-20 17:33:00,71.3,9.6,30.05,WSW,251,4.0,5.0,9,0.00,,CLR,0.00,0.00,VWS V14.01,2013-01-21 01:33:00,
2013-01-20 17:35:00,70.9,9.3,30.05,WSW,256,2.0,6.0,9,0.00,,,0.00,0.00,VWS V14.01,2013-01-21 01:35:00,
2013-01-20 17:38:00,70.6,9.1,30.05,West,263,5.0,6.0,9,0.00,,CLR,0.00,0.00,VWS V14.01,2013-01-21 01:38:00,
2013-01-20 17:40:00,70.3,8.8,30.05,West,265,4.0,6.0,9,0.00,,,0.00,0.00,VWS V14.01,2013-01-21 01:40:00,
2013-01-20 17:44:00,69.9,8.5,30.05,West,273,5.0,7.0,9,0.00,,CLR,0.00,0.00,VWS V14.01,2013-01-21 01:44:00,
2013-01-20 17:45:00,69.8,8.5,30.06,WNW,282,4.0,7.0,9,0.00,,,0.00,0.00,VWS V14.01,2013-01-21 01:45:00,
2013-01-20 17:49:00,69.3,8.1,30.06,WNW,296,6.0,6.0,9,0.00,,CLR,0.00,0.00,VWS V14.01,2013-01-21 01:49:00,
2013-01-20 17:50:00,69.1,7.9,30.06,WNW,296,4.0,7.0,9,0.00,,,0.00,0.00,VWS V14.01,2013-01-21 01:50:00,
2013-01-20 17:54:00,68.9,7.8,30.06,WNW,298,5.0,8.0,9,0.00,,CLR,0.00,0.00,VWS V14.01,2013-01-21 01:54:00,
2013-01-20 17:55:00,68.9,7.8,30.06,WNW,298,3.0,8.0,9,0.00,,,0.00,0.00,VWS V14.01,2013-01-21 01:55:00,
2013-01-20 17:59:00,68.6,7.6,30.06,WNW,298,3.0,5.0,9,0.00,,CLR,0.00,0.00,VWS V14.01,2013-01-21 01:59:00,
2013-01-20 18:00:00,68.6,7.6,30.06,WNW,298,3.0,5.0,9,0.00,,,0.00,0.00,VWS V14.01,2013-01-21 02:00:00,
2013-01-20 18:04:00,68.4,7.4,30.06,WNW,299,0.0,4.0,9,0.00,,CLR,0.00,0.00,VWS V14.01,2013-01-21 02:04:00,
2013-01-20 18:05:00,68.4,7.4,30.06,WNW,299,0.0,4.0,9,0.00,,,0.00,0.00,VWS V14.01,2013-01-21 02:05:00,
2013-01-20 18:10:00,68.3,7.3,30.06,WNW,299,0.0,2.0,9,0.00,,CLR,0.00,0.00,VWS V14.01,2013-01-21 02:10:00,
2013-01-20 18:15:00,67.9,7.0,30.06,WNW,299,0.0,1.0,9,0.00,,CLR,0.00,0.00,VWS V14.01,2013-01-21 02:15:00,
2013-01-20 18:20:00,67.4,6.6,30.06,WNW,299,0.0,2.0,9,0.00,,CLR,0.00,0.00,VWS V14.01,2013-01-21 02:20:00,
2013-01-20 18:25:00,67.1,6.4,30.06,WNW,298,0.0,3.0,9,0.00,,CLR,0.00,0.00,VWS V14.01,2013-01-21 02:25:00,
2013-01-20 18:30:00,66.8,8.5,30.07,West,269,0.0,6.0,10,0.00,,CLR,0.00,0.00,VWS V14.01,2013-01-21 02:30:00,
2013-01-20 18:35:00,66.6,10.5,30.07,West,269,0.0,2.0,11,0.00,,CLR,0.00,0.00,VWS V14.01,2013-01-21 02:35:00,
2013-01-20 18:40:00,66.3,10.2,30.07,West,264,2.0,6.0,11,0.00,,CLR,0.00,0.00,VWS V14.01,2013-01-21 02:40:00,
2013-01-20 18:45:00,66.3,10.2,30.07,WSW,246,5.0,6.0,11,0.00,,CLR,0.00,0.00,VWS V14.01,2013-01-21 02:45:00,
2013-01-20 18:50:00,66.3,10.2,30.07,WSW,246,0.0,1.0,11,0.00,,CLR,0.00,0.00,VWS V14.01,2013-01-21 02:50:00,
2013-01-20 18:55:00,66.1,12.0,30.07,WSW,246,0.0,3.0,12,0.00,,,0.00,0.00,VWS V14.01,2013-01-21 02:55:00,
2013-01-20 18:56:00,66.1,12.0,30.07,WSW,246,0.0,0.0,12,0.00,,CLR,0.00,0.00,VWS V14.01,2013-01-21 02:56:00,
2013-01-20 19:00:00,65.8,9.9,30.08,WSW,246,3.0,3.0,11,0.00,,,0.00,0.00,VWS V14.01,2013-01-21 03:00:00,
2013-01-20 19:01:00,65.8,9.9,30.08,WSW,246,3.0,3.0,11,0.00,,CLR,0.00,0.00,VWS V14.01,2013-01-21 03:01:00,
2013-01-20 19:05:00,65.3,9.5,30.08,WSW,248,2.0,5.0,11,0.00,,,0.00,0.00,VWS V14.01,2013-01-21 03:05:00,
2013-01-20 19:10:00,65.0,9.2,30.08,WSW,248,3.0,4.0,11,0.00,,,0.00,0.00,VWS V14.01,2013-01-21 03:10:00,
2013-01-20 19:15:00,64.5,8.9,30.08,WSW,248,3.0,5.0,11,0.00,,,0.00,0.00,VWS V14.01,2013-01-21 03:15:00,
2013-01-20 19:20:00,64.0,8.5,30.08,West,270,3.0,6.0,11,0.00,,,0.00,0.00,VWS V14.01,2013-01-21 03:20:00,
2013-01-20 19:25:00,63.5,8.1,30.08,West,270,2.0,5.0,11,0.00,,,0.00,0.00,VWS V14.01,2013-01-21 03:25:00,
2013-01-20 19:30:00,63.2,7.8,30.08,West,270,5.0,10.0,11,0.00,,,0.00,0.00,VWS V14.01,2013-01-21 03:30:00,
2013-01-20 19:35:00,63.2,7.8,30.08,WNW,292,5.0,10.0,11,0.00,,,0.00,0.00,VWS V14.01,2013-01-21 03:35:00,
2013-01-20 19:40:00,63.2,7.8,30.08,West,270,5.0,8.0,11,0.00,,,0.00,0.00,VWS V14.01,2013-01-21 03:40:00,
2013-01-20 19:45:00,63.2,9.8,30.08,WNW,292,5.0,8.0,12,0.00,,,0.00,0.00,VWS V14.01,2013-01-21 03:45:00,
2013-01-20 19:50:00,62.9,7.6,30.08,West,270,4.0,8.0,11,0.00,,,0.00,0.00,VWS V14.01,2013-01-21 03:50:00,
2013-01-20 19:55:00,62.4,9.1,30.08,West,270,3.0,6.0,12,0.00,,,0.00,0.00,VWS V14.01,2013-01-21 03:55:00,
2013-01-20 20:00:00,62.1,10.7,30.09,West,270,3.0,6.0,13,0.00,,,0.00,0.00,VWS V14.01,2013-01-21 04:00:00,
2013-01-20 20:05:00,61.6,10.3,30.09,West,270,3.0,6.0,13,0.00,,,0.00,0.00,VWS V14.01,2013-01-21 04:05:00,
2013-01-20 20:10:00,61.0,11.5,30.09,West,270,3.0,6.0,14,0.00,,,0.00,0.00,VWS V14.01,2013-01-21 04:10:00,
2013-01-20 20:15:00,60.5,9.4,30.09,West,270,4.0,6.0,13,0.00,,,0.00,0.00,VWS V14.01,2013-01-21 04:15:00,
2013-01-20 20:20:00,59.8,10.5,30.09,West,270,2.0,6.0,14,0.00,,,0.00,0.00,VWS V14.01,2013-01-21 04:20:00,
2013-01-20 20:25:00,59.2,10.1,30.09,West,270,2.0,4.0,14,0.00,,,0.00,0.00,VWS V14.01,2013-01-21 04:25:00,
2013-01-20 20:30:00,58.7,9.6,30.09,West,270,4.0,8.0,14,0.00,,,0.00,0.00,VWS V14.01,2013-01-21 04:30:00,
2013-01-20 20:35:00,58.6,7.9,30.09,West,270,2.0,7.0,13,0.00,,,0.00,0.00,VWS V14.01,2013-01-21 04:35:00,
2013-01-20 20:40:00,58.6,7.9,30.09,West,270,4.0,7.0,13,0.00,,,0.00,0.00,VWS V14.01,2013-01-21 04:40:00,
2013-01-20 20:45:00,58.7,8.0,30.09,West,270,5.0,8.0,13,0.00,,,0.00,0.00,VWS V14.01,2013-01-21 04:45:00,
2013-01-20 20:50:00,58.7,8.0,30.09,West,270,4.0,8.0,13,0.00,,,0.00,0.00,VWS V14.01,2013-01-21 04:50:00,
2013-01-20 20:55:00,58.4,7.8,30.09,WNW,292,5.0,8.0,13,0.00,,,0.00,0.00,VWS V14.01,2013-01-21 04:55:00,
2013-01-20 21:00:00,58.1,7.5,30.09,West,270,3.0,8.0,13,0.00,,,0.00,0.00,VWS V14.01,2013-01-21 05:00:00,
2013-01-20 21:05:00,58.3,7.7,30.09,West,270,3.0,8.0,13,0.00,,,0.00,0.00,VWS V14.01,2013-01-21 05:05:00,
2013-01-20 21:10:00,58.4,7.8,30.09,West,270,4.0,9.0,13,0.00,,,0.00,0.00,VWS V14.01,2013-01-21 05:10:00,
2013-01-20 21:15:00,58.7,8.0,30.09,West,270,4.0,8.0,13,0.00,,,0.00,0.00,VWS V14.01,2013-01-21 05:15:00,
2013-01-20 21:20:00,58.7,8.0,30.09,WNW,292,5.0,8.0,13,0.00,,,0.00,0.00,VWS V14.01,2013-01-21 05:20:00,
2013-01-20 21:25:00,58.6,7.9,30.09,NW,315,5.0,8.0,13,0.00,,,0.00,0.00,VWS V14.01,2013-01-21 05:25:00,
2013-01-20 21:30:00,58.3,7.7,30.09,West,270,5.0,8.0,13,0.00,,,0.00,0.00,VWS V14.01,2013-01-21 05:30:00,
2013-01-20 21:35:00,58.1,7.5,30.09,WNW,292,3.0,5.0,13,0.00,,,0.00,0.00,VWS V14.01,2013-01-21 05:35:00,
2013-01-20 21:40:00,57.8,7.3,30.09,WNW,292,4.0,8.0,13,0.00,,,0.00,0.00,VWS V14.01,2013-01-21 05:40:00,
2013-01-20 21:45:00,57.6,7.1,30.09,West,270,3.0,8.0,13,0.00,,,0.00,0.00,VWS V14.01,2013-01-21 05:45:00,
2013-01-20 21:50:00,57.8,7.3,30.09,NW,315,4.0,7.0,13,0.00,,,0.00,0.00,VWS V14.01,2013-01-21 05:50:00,
2013-01-20 21:55:00,57.8,7.3,30.09,WNW,292,4.0,6.0,13,0.00,,,0.00,0.00,VWS V14.01,2013-01-21 05:55:00,
2013-01-20 22:00:00,57.6,7.1,30.10,West,270,2.0,5.0,13,0.00,,,0.00,0.00,VWS V14.01,2013-01-21 06:00:00,
2013-01-20 22:05:00,57.3,6.9,30.10,West,270,1.0,3.0,13,0.00,,,0.00,0.00,VWS V14.01,2013-01-21 06:05:00,
2013-01-20 22:10:00,57.3,6.9,30.10,West,270,3.0,7.0,13,0.00,,,0.00,0.00,VWS V14.01,2013-01-21 06:10:00,
2013-01-20 22:15:00,57.6,7.1,30.09,West,270,3.0,8.0,13,0.00,,,0.00,0.00,VWS V14.01,2013-01-21 06:15:00,
2013-01-20 22:20:00,58.1,7.5,30.09,West,270,3.0,7.0,13,0.00,,,0.00,0.00,VWS V14.01,2013-01-21 06:20:00,
2013-01-20 22:25:00,58.3,7.7,30.09,West,270,2.0,5.0,13,0.00,,,0.00,0.00,VWS V14.01,2013-01-21 06:25:00,
2013-01-20 22:30:00,58.3,7.7,30.10,West,270,2.0,6.0,13,0.00,,,0.00,0.00,VWS V14.01,2013-01-21 06:30:00,
2013-01-20 22:35:00,58.1,7.5,30.10,West,270,1.0,4.0,13,0.00,,,0.00,0.00,VWS V14.01,2013-01-21 06:35:00,
2013-01-20 22:40:00,58.0,7.4,30.10,West,270,2.0,4.0,13,0.00,,,0.00,0.00,VWS V14.01,2013-01-21 06:40:00,
2013-01-20 22:45:00,57.8,7.3,30.09,West,270,2.0,6.0,13,0.00,,,0.00,0.00,VWS V14.01,2013-01-21 06:45:00,
2013-01-20 22:50:00,57.5,7.1,30.09,West,270,2.0,6.0,13,0.00,,,0.00,0.00,VWS V14.01,2013-01-21 06:50:00,
2013-01-20 22:55:00,57.0,6.7,30.09,West,270,1.0,3.0,13,0.00,,,0.00,0.00,VWS V14.01,2013-01-21 06:55:00,
2013-01-20 23:00:00,56.7,6.4,30.09,WSW,248,1.0,3.0,13,0.00,,,0.00,0.00,VWS V14.01,2013-01-21 07:00:00,
2013-01-20 23:05:00,56.5,6.3,30.09,WSW,248,2.0,3.0,13,0.00,,,0.00,0.00,VWS V14.01,2013-01-21 07:05:00,
2013-01-20 23:10:00,56.2,6.0,30.09,WSW,248,1.0,3.0,13,0.00,,,0.00,0.00,VWS V14.01,2013-01-21 07:10:00,
2013-01-20 23:15:00,55.9,5.8,30.09,WSW,248,0.0,3.0,13,0.00,,,0.00,0.00,VWS V14.01,2013-01-21 07:15:00,
2013-01-20 23:26:00,55.7,7.3,30.09,WSW,248,1.0,3.0,14,0.00,,,0.00,0.00,VWS V14.01,2013-01-21 07:26:00,
2013-01-20 23:32:00,55.1,6.8,30.09,West,278,2.0,4.0,14,0.00,,CLR,0.00,0.00,VWS V14.01,2013-01-21 07:32:00,
2013-01-20 23:37:00,54.8,6.5,30.09,West,271,2.0,2.0,14,0.00,,CLR,0.00,0.00,VWS V14.01,2013-01-21 07:37:00,
2013-01-20 23:43:00,54.7,6.5,30.09,WSW,246,4.0,4.0,14,0.00,,CLR,0.00,0.00,VWS V14.01,2013-01-21 07:43:00,
2013-01-20 23:48:00,54.5,6.3,30.08,West,262,1.0,4.0,14,0.00,,CLR,0.00,0.00,VWS V14.01,2013-01-21 07:48:00,
2013-01-20 23:53:00,54.2,6.1,30.08,North,5,4.0,5.0,14,0.00,,CLR,0.00,0.00,VWS V14.01,2013-01-21 07:53:00,
2013-01-20 23:58:00,54.1,6.0,30.08,NNW,342,3.0,5.0,14,0.00,,CLR,0.00,0.00,VWS V14.01,2013-01-21 07:58:00,